TimeEST,TemperatureF,Dew PointF,Humidity,Sea Level PressureIn,VisibilityMPH,Wind Direction,Wind SpeedMPH,Gust SpeedMPH,PrecipitationIn,Events,Conditions,WindDirDegrees,DateUTC
12:14 AM,42.8,30.2,61,30.04,10.0,NNW,10.4,-,N/A,,Overcast,340,2012-11-05 05:14:00
12:36 AM,42.8,32.0,66,30.04,10.0,North,10.4,-,N/A,,Overcast,350,2012-11-05 05:36:00
12:57 AM,42.8,30.2,61,30.04,10.0,North,8.1,-,N/A,,Overcast,350,2012-11-05 05:57:00
1:18 AM,42.8,30.2,61,30.04,10.0,North,6.9,-,N/A,,Overcast,350,2012-11-05 06:18:00
1:40 AM,42.8,30.2,61,30.04,10.0,North,6.9,-,N/A,,Overcast,10,2012-11-05 06:40:00
2:01 AM,42.8,30.2,61,30.04,10.0,NNW,9.2,-,N/A,,Overcast,340,2012-11-05 07:01:00
2:22 AM,42.8,30.2,61,30.04,10.0,NNW,5.8,-,N/A,,Overcast,340,2012-11-05 07:22:00
2:44 AM,42.8,30.2,61,30.04,10.0,North,9.2,-,N/A,,Overcast,350,2012-11-05 07:44:00
3:05 AM,42.8,30.2,61,30.03,10.0,NNW,6.9,-,N/A,,Overcast,330,2012-11-05 08:05:00
3:26 AM,42.8,30.2,61,30.03,10.0,North,6.9,-,N/A,,Overcast,350,2012-11-05 08:26:00
3:48 AM,42.8,30.2,61,30.02,10.0,North,9.2,-,N/A,,Overcast,350,2012-11-05 08:48:00
4:09 AM,42.8,30.2,61,30.03,10.0,North,8.1,-,N/A,,Overcast,350,2012-11-05 09:09:00
4:30 AM,42.8,30.2,61,30.03,10.0,NNW,9.2,-,N/A,,Overcast,340,2012-11-05 09:30:00
4:51 AM,42.8,32.0,66,30.04,10.0,North,9.2,-,N/A,,Overcast,350,2012-11-05 09:51:00
5:13 AM,42.8,32.0,66,30.05,10.0,NNW,9.2,-,N/A,,Overcast,340,2012-11-05 10:13:00
5:55 AM,41.0,32.0,70,30.05,10.0,NNW,8.1,-,N/A,,Overcast,330,2012-11-05 10:55:00
6:17 AM,41.0,32.0,70,30.06,10.0,NNW,8.1,-,N/A,,Overcast,340,2012-11-05 11:17:00
6:38 AM,41.0,32.0,70,30.06,10.0,NNW,9.2,-,N/A,,Overcast,330,2012-11-05 11:38:00
6:59 AM,41.0,30.2,65,30.07,10.0,NNW,8.1,-,N/A,,Overcast,330,2012-11-05 11:59:00
7:20 AM,41.0,28.4,61,30.08,10.0,NNW,9.2,-,N/A,,Overcast,340,2012-11-05 12:20:00
7:41 AM,41.0,28.4,61,30.09,10.0,North,9.2,19.6,N/A,,Overcast,350,2012-11-05 12:41:00
8:03 AM,41.0,28.4,61,30.10,10.0,North,13.8,19.6,N/A,,Overcast,350,2012-11-05 13:03:00
8:24 AM,41.0,28.4,61,30.10,10.0,North,16.1,21.9,N/A,,Overcast,350,2012-11-05 13:24:00
8:45 AM,41.0,26.6,57,30.10,10.0,North,15.0,20.7,N/A,,Overcast,350,2012-11-05 13:45:00
9:28 AM,41.0,26.6,57,30.11,10.0,North,13.8,20.7,N/A,,Overcast,350,2012-11-05 14:28:00
9:49 AM,42.8,26.6,53,30.11,10.0,NNW,13.8,19.6,N/A,,Overcast,340,2012-11-05 14:49:00
10:31 AM,41.0,26.6,57,30.12,10.0,North,9.2,17.3,N/A,,Mostly Cloudy,350,2012-11-05 15:31:00
10:53 AM,41.0,26.6,57,30.12,10.0,NNW,9.2,-,N/A,,Mostly Cloudy,340,2012-11-05 15:53:00
11:14 AM,42.8,26.6,53,30.11,10.0,NNW,8.1,-,N/A,,Mostly Cloudy,330,2012-11-05 16:14:00
11:35 AM,44.6,26.6,49,30.10,10.0,North,9.2,-,N/A,,Scattered Clouds,360,2012-11-05 16:35:00
11:56 AM,44.6,26.6,49,30.10,10.0,North,10.4,-,N/A,,Clear,350,2012-11-05 16:56:00
12:17 PM,44.6,26.6,49,30.09,10.0,North,8.1,-,N/A,,Scattered Clouds,10,2012-11-05 17:17:00
12:39 PM,44.6,28.4,53,30.08,10.0,North,8.1,-,N/A,,Clear,360,2012-11-05 17:39:00
1:00 PM,44.6,28.4,53,30.08,10.0,NNW,9.2,-,N/A,,Clear,340,2012-11-05 18:00:00
2:04 PM,46.4,26.6,46,30.07,10.0,North,10.4,-,N/A,,Clear,350,2012-11-05 19:04:00
2:25 PM,46.4,26.6,46,30.07,10.0,NNW,9.2,-,N/A,,Clear,330,2012-11-05 19:25:00
2:46 PM,46.4,26.6,46,30.07,10.0,North,11.5,17.3,N/A,,Clear,350,2012-11-05 19:46:00
3:07 PM,46.4,26.6,46,30.07,10.0,NNW,10.4,16.1,N/A,,Clear,340,2012-11-05 20:07:00
3:29 PM,46.4,26.6,46,30.07,10.0,NW,8.1,16.1,N/A,,Clear,320,2012-11-05 20:29:00
3:50 PM,46.4,26.6,46,30.07,10.0,NNW,8.1,16.1,N/A,,Clear,340,2012-11-05 20:50:00
4:11 PM,46.4,26.6,46,30.08,10.0,NNW,6.9,-,N/A,,Clear,340,2012-11-05 21:11:00
4:54 PM,44.6,26.6,49,30.09,10.0,NW,6.9,-,N/A,,Clear,320,2012-11-05 21:54:00
5:15 PM,44.6,26.6,49,30.09,10.0,NNW,8.1,-,N/A,,Clear,330,2012-11-05 22:15:00
5:36 PM,44.6,26.6,49,30.10,10.0,North,6.9,-,N/A,,Clear,360,2012-11-05 22:36:00
5:57 PM,42.8,28.4,57,30.11,10.0,North,5.8,-,N/A,,Clear,10,2012-11-05 22:57:00
6:18 PM,42.8,26.6,53,30.12,10.0,NNE,5.8,-,N/A,,Clear,20,2012-11-05 23:18:00
7:01 PM,42.8,28.4,57,30.14,10.0,NNE,4.6,-,N/A,,Clear,20,2012-11-06 00:01:00
7:22 PM,41.0,28.4,61,30.15,10.0,NNE,4.6,-,N/A,,Clear,20,2012-11-06 00:22:00
7:43 PM,41.0,28.4,61,30.15,10.0,NNE,8.1,-,N/A,,Clear,30,2012-11-06 00:43:00
8:05 PM,41.0,28.4,61,30.16,10.0,NNE,4.6,-,N/A,,Clear,30,2012-11-06 01:05:00
8:26 PM,39.2,28.4,65,30.17,10.0,NNE,6.9,-,N/A,,Clear,20,2012-11-06 01:26:00
9:30 PM,37.4,28.4,70,30.18,10.0,NNE,5.8,-,N/A,,Clear,20,2012-11-06 02:30:00
9:51 PM,37.4,28.4,70,30.19,10.0,NNE,4.6,-,N/A,,Clear,30,2012-11-06 02:51:00
10:12 PM,37.4,26.6,65,30.18,10.0,NNE,5.8,-,N/A,,Clear,20,2012-11-06 03:12:00
10:34 PM,37.4,26.6,65,30.18,10.0,NNE,4.6,-,N/A,,Clear,20,2012-11-06 03:34:00
10:55 PM,37.4,26.6,65,30.18,10.0,NE,3.5,-,N/A,,Clear,40,2012-11-06 03:55:00
11:16 PM,37.4,26.6,65,30.18,10.0,NNE,4.6,-,N/A,,Clear,30,2012-11-06 04:16:00
11:59 PM,37.4,26.6,65,30.19,10.0,NNE,4.6,-,N/A,,Clear,30,2012-11-06 04:59:00